• In Latvia
  • List of Countries
  • For 7 days
  • Water Temperature
  • Satellite Maps
  • Weather Map
  • Weather Widgets
  • user-avatar
    Login

    Hourly Weather Ordino

    Today, 21 February, Wednesday

    Time Temperature Precipitation Wind Pressure Humidity
    00:00 -2°C° 0.3 mm 3 mps 627 mmHg 86%
    01:00 -2°C° 0.7 mm 3 mps 627 mmHg 87%
    02:00 -2°C° 0.7 mm 3 mps 626 mmHg 87%
    03:00 -2°C° 0.7 mm 2 mps 626 mmHg 88%
    04:00 -2°C° 1 mm 2 mps 626 mmHg 88%
    05:00 -4°C° 1 mm 3 mps 626 mmHg 88%
    06:00 -4°C° 1 mm 3 mps 625 mmHg 89%
    07:00 -4°C° 0.3 mm 3 mps 626 mmHg 86%
    08:00 -4°C° 0.3 mm 4 mps 626 mmHg 83%
    09:00 -4°C° 0.3 mm 4 mps 626 mmHg 80%
    10:00 -4°C° 0 mm 4 mps 626 mmHg 75%
    11:00 -4°C° 0 mm 4 mps 626 mmHg 69%
    12:00 -4°C° 0 mm 4 mps 626 mmHg 64%
    13:00 -4°C° 0 mm 4 mps 626 mmHg 64%
    14:00 -4°C° 0 mm 4 mps 626 mmHg 64%
    15:00 -4°C° 0 mm 4 mps 626 mmHg 65%
    16:00 -5°C° 0 mm 4 mps 625 mmHg 69%
    17:00 -6°C° 0 mm 3 mps 625 mmHg 73%
    18:00 -8°C° 0 mm 3 mps 625 mmHg 78%
    19:00 -8°C° 0 mm 3 mps 625 mmHg 77%
    20:00 -9°C° 0 mm 3 mps 625 mmHg 77%
    21:00 -10°C° 0 mm 3 mps 625 mmHg 77%
    22:00 -10°C° 0 mm 3 mps 625 mmHg 77%
    23:00 -10°C° 0 mm 3 mps 624 mmHg 77%

    Tomorrow, 22 February, Thursday

    Time Temperature Precipitation Wind Pressure Humidity
    00:00 -10°C° 0 mm 3 mps 624 mmHg 76%
    01:00 -10°C° 0 mm 3 mps 624 mmHg 76%
    02:00 -10°C° 0 mm 3 mps 624 mmHg 76%
    03:00 -12°C° 0 mm 3 mps 624 mmHg 76%
    04:00 -12°C° 0 mm 3 mps 623 mmHg 76%
    05:00 -12°C° 0 mm 3 mps 623 mmHg 76%
    06:00 -12°C° 0 mm 3 mps 623 mmHg 76%
    07:00 -9°C° 0 mm 3 mps 623 mmHg 73%
    08:00 -9°C° 0 mm 4 mps 624 mmHg 70%
    09:00 -8°C° 0 mm 4 mps 624 mmHg 67%
    10:00 -7°C° 0 mm 4 mps 624 mmHg 64%
    11:00 -5°C° 0 mm 4 mps 625 mmHg 61%
    12:00 -4°C° 0 mm 4 mps 625 mmHg 57%
    13:00 -4°C° 0 mm 4 mps 624 mmHg 57%
    14:00 -4°C° 0 mm 4 mps 624 mmHg 57%
    15:00 -4°C° 0 mm 4 mps 624 mmHg 57%
    16:00 -6°C° 0 mm 3 mps 623 mmHg 63%
    17:00 -7°C° 0 mm 3 mps 623 mmHg 69%
    18:00 -9°C° 0 mm 3 mps 623 mmHg 75%
    19:00 -9°C° 0 mm 3 mps 623 mmHg 76%
    20:00 -10°C° 0 mm 3 mps 623 mmHg 76%
    21:00 -12°C° 0 mm 3 mps 623 mmHg 76%
    22:00 -12°C° 0 mm 3 mps 623 mmHg 75%
    23:00 -10°C° 0 mm 2 mps 623 mmHg 75%

    Day after tomorrow, 23 February, Friday

    Time Temperature Precipitation Wind Pressure Humidity
    00:00 -12°C° 0 mm 2 mps 622 mmHg 74%
    01:00 -12°C° 0 mm 2 mps 622 mmHg 73%
    02:00 -12°C° 0 mm 2 mps 622 mmHg 71%
    03:00 -12°C° 0 mm 2 mps 622 mmHg 70%
    04:00 -12°C° 0 mm 2 mps 622 mmHg 69%
    05:00 -12°C° 0 mm 2 mps 622 mmHg 68%
    06:00 -12°C° 0 mm 2 mps 622 mmHg 67%
    07:00 -9°C° 0 mm 2 mps 623 mmHg 63%
    08:00 -6°C° 0 mm 1 mps 624 mmHg 59%
    09:00 -3°C° 0 mm 1 mps 625 mmHg 56%
    10:00 -2°C° 0 mm 1 mps 625 mmHg 54%
    11:00 -1°C° 0 mm 1 mps 625 mmHg 52%
    12:00 +1°C° 0 mm 1 mps 626 mmHg 50%
    13:00 +1°C° 0 mm 1 mps 626 mmHg 51%
    14:00 +1°C° 0 mm 1 mps 625 mmHg 53%
    15:00 +1°C° 0 mm 1 mps 625 mmHg 54%
    16:00 -1°C° 0 mm 1 mps 624 mmHg 62%
    17:00 -4°C° 0 mm 1 mps 624 mmHg 69%
    18:00 -7°C° 0 mm 0 mps 623 mmHg 76%
    19:00 -7°C° 0 mm 1 mps 623 mmHg 75%
    20:00 -7°C° 0 mm 1 mps 623 mmHg 74%
    21:00 -8°C° 0 mm 1 mps 624 mmHg 73%
    22:00 -8°C° 0 mm 1 mps 624 mmHg 72%
    23:00 -8°C° 0 mm 1 mps 624 mmHg 71%

    24 February, Saturday

    Time Temperature Precipitation Wind Pressure Humidity
    00:00 -8°C° 0 mm 1 mps 624 mmHg 70%
    01:00 -8°C° 0 mm 1 mps 623 mmHg 69%
    02:00 -8°C° 0 mm 1 mps 623 mmHg 68%
    03:00 -8°C° 0 mm 1 mps 623 mmHg 68%
    04:00 -8°C° 0 mm 1 mps 623 mmHg 66%
    05:00 -8°C° 0 mm 1 mps 623 mmHg 65%
    06:00 -9°C° 0 mm 1 mps 623 mmHg 63%
    07:00 -6°C° 0 mm 1 mps 624 mmHg 60%
    08:00 -3°C° 0 mm 1 mps 625 mmHg 56%
    09:00 -2°C° 0 mm 0 mps 626 mmHg 53%
    10:00 0°C° 0 mm 1 mps 626 mmHg 51%
    11:00 +1°C° 0 mm 1 mps 626 mmHg 49%
    12:00 +1°C° 0 mm 2 mps 626 mmHg 48%
    13:00 +1°C° 0 mm 2 mps 626 mmHg 49%
    14:00 +1°C° 0 mm 2 mps 626 mmHg 50%
    15:00 +2°C° 0 mm 1 mps 626 mmHg 52%
    16:00 0°C° 0 mm 1 mps 625 mmHg 59%
    17:00 -2°C° 0 mm 1 mps 625 mmHg 67%
    18:00 -5°C° 0 mm 0 mps 624 mmHg 75%
    19:00 -6°C° 0 mm 1 mps 624 mmHg 76%
    20:00 -6°C° 0 mm 1 mps 625 mmHg 77%
    21:00 -7°C° 0 mm 1 mps 625 mmHg 78%
    22:00 -7°C° 0 mm 1 mps 625 mmHg 77%
    23:00 -7°C° 0 mm 1 mps 625 mmHg 76%

    25 February, Sunday

    Time Temperature Precipitation Wind Pressure Humidity
    00:00 -7°C° 0 mm 1 mps 625 mmHg 75%
    01:00 -7°C° 0 mm 1 mps 625 mmHg 74%
    02:00 -7°C° 0 mm 1 mps 625 mmHg 74%
    03:00 -7°C° 0 mm 1 mps 625 mmHg 73%
    04:00 -8°C° 0 mm 2 mps 625 mmHg 73%
    05:00 -8°C° 0 mm 2 mps 625 mmHg 72%
    06:00 -8°C° 0 mm 2 mps 625 mmHg 72%
    07:00 -6°C° 0 mm 2 mps 626 mmHg 67%
    08:00 -4°C° 0 mm 2 mps 627 mmHg 61%
    09:00 0°C° 0 mm 1 mps 628 mmHg 56%
    10:00 -1°C° 0 mm 2 mps 628 mmHg 55%
    11:00 +2°C° 0 mm 2 mps 628 mmHg 54%
    12:00 +3°C° 0 mm 2 mps 629 mmHg 52%
    13:00 +3°C° 0 mm 2 mps 629 mmHg 54%
    14:00 +2°C° 0 mm 3 mps 628 mmHg 56%
    15:00 +2°C° 0 mm 3 mps 628 mmHg 58%
    16:00 0°C° 0 mm 3 mps 628 mmHg 64%
    17:00 -2°C° 0 mm 2 mps 627 mmHg 71%
    18:00 -4°C° 0 mm 2 mps 627 mmHg 77%
    19:00 -4°C° 0 mm 2 mps 626 mmHg 75%
    20:00 -5°C° 0 mm 2 mps 626 mmHg 73%
    21:00 -6°C° 0 mm 2 mps 626 mmHg 71%
    22:00 -6°C° 0 mm 2 mps 626 mmHg 70%
    23:00 -6°C° 0 mm 2 mps 626 mmHg 69%

    26 February, Monday

    Time Temperature Precipitation Wind Pressure Humidity
    00:00 -6°C° 0 mm 2 mps 626 mmHg 68%
    01:00 -6°C° 0 mm 2 mps 626 mmHg 68%
    02:00 -6°C° 0 mm 2 mps 626 mmHg 68%
    03:00 -6°C° 0 mm 2 mps 626 mmHg 68%
    04:00 -6°C° 0 mm 2 mps 626 mmHg 68%
    05:00 -6°C° 0 mm 2 mps 626 mmHg 68%
    06:00 -7°C° 0 mm 2 mps 625 mmHg 68%
    07:00 -3°C° 0 mm 1 mps 626 mmHg 64%
    08:00 -1°C° 0 mm 1 mps 627 mmHg 60%
    09:00 0°C° 0 mm 0 mps 628 mmHg 56%
    10:00 +2°C° 0 mm 1 mps 628 mmHg 57%
    11:00 +3°C° 0 mm 1 mps 628 mmHg 57%
    12:00 +4°C° 0 mm 1 mps 628 mmHg 57%
    13:00 +4°C° 0 mm 1 mps 628 mmHg 60%
    14:00 +4°C° 0 mm 1 mps 627 mmHg 62%
    15:00 +3°C° 0 mm 1 mps 627 mmHg 65%
    16:00 +2°C° 0 mm 1 mps 626 mmHg 71%
    17:00 0°C° 0 mm 1 mps 626 mmHg 77%
    18:00 -1°C° 0 mm 1 mps 625 mmHg 84%
    19:00 -2°C° 0 mm 1 mps 625 mmHg 84%
    20:00 -2°C° 0 mm 1 mps 625 mmHg 84%
    21:00 -2°C° 0 mm 1 mps 625 mmHg 84%
    22:00 -3°C° 0 mm 1 mps 625 mmHg 84%
    23:00 -3°C° 0 mm 1 mps 624 mmHg 84%
    Show more